Time,TemperatureF,DewpointF,PressureIn,WindDirection,WindDirectionDegrees,WindSpeedMPH,WindSpeedGustMPH,Humidity,HourlyPrecipIn,Conditions,Clouds,dailyrainin,SoftwareType,DateUTC
2013-05-03 00:02:00,49.0,-99.9,-100.00,NE,40,4.0,7.0,-999,-99.99,,,-99.99,,2013-05-03 06:02:00,
2013-05-03 00:12:00,49.0,-99.9,-100.00,NE,40,4.0,7.0,-999,-99.99,,,-99.99,,2013-05-03 06:12:00,
2013-05-03 00:30:00,49.0,-99.9,-100.00,NW,323,2.0,2.0,-999,-99.99,,,-99.99,,2013-05-03 06:30:00,
2013-05-03 01:11:00,49.0,-99.9,-100.00,NW,323,2.0,2.0,-999,-99.99,,,-99.99,,2013-05-03 07:11:00,
2013-05-03 01:22:00,49.0,-99.9,-100.00,NW,323,2.0,2.0,-999,-99.99,,,-99.99,,2013-05-03 07:22:00,
2013-05-03 02:53:00,49.0,-99.9,-100.00,WSW,247,2.0,4.0,-999,-99.99,,,-99.99,,2013-05-03 08:53:00,
2013-05-03 03:02:00,49.0,-99.9,-100.00,WSW,247,2.0,4.0,-999,-99.99,,,-99.99,,2013-05-03 09:02:00,
2013-05-03 03:12:00,49.0,-99.9,-100.00,WSW,247,2.0,4.0,-999,-99.99,,,-99.99,,2013-05-03 09:12:00,
2013-05-03 03:53:00,48.0,-99.9,-100.00,West,280,4.0,9.0,-999,-99.99,,,-99.99,,2013-05-03 09:53:00,
2013-05-03 04:00:00,48.0,-99.9,-100.00,NW,326,9.0,16.0,-999,-99.99,,,-99.99,,2013-05-03 10:00:00,
2013-05-03 04:03:00,48.0,-99.9,-100.00,West,280,4.0,9.0,-999,-99.99,,,-99.99,,2013-05-03 10:03:00,
2013-05-03 04:13:00,48.0,-99.9,-100.00,West,280,4.0,9.0,-999,-99.99,,,-99.99,,2013-05-03 10:13:00,
2013-05-03 04:52:00,48.0,-99.9,-100.00,NW,326,9.0,16.0,-999,-99.99,,,-99.99,,2013-05-03 10:52:00,
2013-05-03 12:52:00,47.0,-99.9,-100.00,SSE,148,7.0,7.0,-999,-99.99,,,-99.99,,2013-05-03 18:52:00,
2013-05-03 13:02:00,47.0,-99.9,-100.00,SSE,148,7.0,7.0,-999,-99.99,,,-99.99,,2013-05-03 19:02:00,
2013-05-03 13:11:00,47.0,-99.9,-100.00,SSE,148,7.0,7.0,-999,-99.99,,,-99.99,,2013-05-03 19:11:00,
2013-05-03 15:00:00,47.0,-99.9,-100.00,SE,141,9.0,9.0,-999,-99.99,,,-99.99,,2013-05-03 21:00:00,
2013-05-03 15:53:00,47.0,-99.9,-100.00,SE,141,9.0,9.0,-999,-99.99,,,-99.99,,2013-05-03 21:53:00,
2013-05-03 20:52:00,52.0,-99.9,-100.00,West,281,2.0,4.0,-999,-99.99,,,-99.99,,2013-05-04 02:52:00,
2013-05-03 21:02:00,52.0,-99.9,-100.00,West,281,2.0,4.0,-999,-99.99,,,-99.99,,2013-05-04 03:02:00,
2013-05-03 21:11:00,52.0,-99.9,-100.00,West,281,2.0,4.0,-999,-99.99,,,-99.99,,2013-05-04 03:11:00,
2013-05-03 21:53:00,51.0,-99.9,-100.00,WNW,300,4.0,7.0,-999,-99.99,,,-99.99,,2013-05-04 03:53:00,
2013-05-03 22:02:00,51.0,-99.9,-100.00,WNW,300,4.0,7.0,-999,-99.99,,,-99.99,,2013-05-04 04:02:00,
2013-05-03 22:13:00,51.0,-99.9,-100.00,WNW,300,4.0,7.0,-999,-99.99,,,-99.99,,2013-05-04 04:13:00,
2013-05-03 23:12:00,49.0,-99.9,-100.00,SW,232,2.0,4.0,-999,-99.99,,,-99.99,,2013-05-04 05:12:00,